Location: Tuebingen alte Sternwarte
(48.5376°N, 9.0555°E)
Time: 01:48:49
(UTC+02:00)

Amateur Radio Satellites - All Passes

Search period start: 24 September 2017 01:18
Search period end: 25 September 2017 01:18
Location: Tuebingen alte Sternwarte, 48.5376°N, 9.0555°E

Satellite Date Start Highest point End Downlink Frequencies (MHz)
Time Altitude Azimuth
nSIGHT-1 24 Sep 01:19:38 01:22:48 49° 7° (N) 01:25:59 .
UKube-1 24 Sep 01:24:38 01:28:21 29° 65° (ENE) 01:32:06 .
DUCHIFAT 1 24 Sep 01:24:53 01:29:05 57° 101° (E) 01:33:16 145.980
Oscar 19 24 Sep 01:29:09 01:30:27 11° 85° (E) 01:31:44 437.125/150
DX 1 24 Sep 01:30:55 01:35:07 49° 70° (ENE) 01:39:19 434.975-435.025
ESTCUBE 1 24 Sep 01:32:03 01:34:06 13° 273° (W) 01:36:09 437.505/2401.250
YUBILEINY 24 Sep 01:33:11 01:41:04 40° 275° (W) 01:48:57 435.215
POLYITAN 1 24 Sep 01:38:31 01:42:51 84° 283° (WNW) 01:47:08 437.675
EO-79 24 Sep 01:42:51 01:47:08 76° 287° (WNW) 01:51:24 145.935-145.965
M-CUBED/EXP-1 PRIME 24 Sep 01:51:48 01:54:35 24° 101° (E) 01:57:18 437.505
Tancredo 1 24 Sep 01:52:18 01:54:54 43° 210° (SSW) 01:57:29 437.200
PCSat 24 Sep 01:52:33 01:56:17 19° 254° (WSW) 02:00:01 145.827
QB50P2 24 Sep 01:56:34 02:00:44 50° 289° (WNW) 02:04:52 145.880/145.840
VELOX 1 24 Sep 01:58:52 02:02:38 28° 265° (W) 02:06:26 145.980
SPROUT 24 Sep 01:58:57 02:02:10 21° 268° (W) 02:05:24 437.525
BUGSAT 1 24 Sep 02:00:26 02:04:22 38° 98° (E) 02:08:20 437.445
AIST 2D 24 Sep 02:14:43 02:16:04 12° 299° (WNW) 02:17:25 435.315
BEESAT 24 Sep 02:15:42 02:18:42 17° 57° (ENE) 02:21:44 436.000
ISS 24 Sep 02:16:28 02:19:46 71° 18° (NNE) 02:23:03 437.550
O/OREOS (USA 219) 24 Sep 02:18:49 02:21:49 18° 100° (E) 02:24:51 437.305
50 SAT 24 Sep 02:23:53 02:26:47 29° 263° (W) 02:29:44 437.505
NANOSAT C BR1 24 Sep 02:32:25 02:36:04 28° 294° (WNW) 02:39:44 145.865
MOZHAYETS 4 24 Sep 02:45:58 02:49:50 27° 64° (ENE) 02:53:44
Gurwin Techsat 1B 24 Sep 02:50:35 02:55:35 40° 97° (E) 03:00:33 435.225
nSIGHT-1 24 Sep 02:56:01 02:59:15 67° 206° (SSW) 03:02:29 .
UKube-1 24 Sep 03:00:27 03:04:19 32° 263° (W) 03:08:13 .
DUCHIFAT 1 24 Sep 03:01:27 03:04:21 18° 299° (WNW) 03:07:14 145.980
Oscar 19 24 Sep 03:05:28 03:10:39 75° 102° (ESE) 03:15:48 437.125/150
AO-7 24 Sep 03:06:52 03:10:12 13° 83° (E) 03:13:32 .
DX 1 24 Sep 03:08:26 03:11:34 19° 268° (W) 03:14:43 434.975-435.025
CUBESAT XI-V 24 Sep 03:14:13 03:16:33 14° 56° (ENE) 03:18:53 437.345
ITUPSAT 1 24 Sep 03:14:40 03:19:16 50° 69° (ENE) 03:23:55 437.325
POLYITAN 1 24 Sep 03:16:24 03:17:54 12° 304° (NW) 03:19:26 437.675
EO-79 24 Sep 03:21:13 03:22:08 11° 305° (NW) 03:23:03 145.935-145.965
M-CUBED/EXP-1 PRIME 24 Sep 03:26:15 03:29:01 24° 300° (WNW) 03:31:42 437.505
BEESAT 3 24 Sep 03:27:17 03:30:31 22° 35° (NE) 03:33:41 437.485
BEESAT 2 24 Sep 03:35:02 03:37:19 14° 26° (NNE) 03:39:36 435.950
BUGSAT 1 24 Sep 03:36:08 03:39:34 24° 295° (WNW) 03:42:59 437.445
RS-15 24 Sep 03:45:00 03:48:09 11° 89° (E) 03:51:18 29.354- 29.394
BEESAT 24 Sep 03:51:09 03:55:55 77° 256° (WSW) 04:00:43 436.000
AO-85 24 Sep 03:52:20 03:55:30 20° 32° (NNE) 03:58:50 145.980
ISS 24 Sep 03:53:09 03:56:03 29° 216° (SW) 03:58:57 437.550
O/OREOS (USA 219) 24 Sep 03:56:18 04:00:45 60° 300° (WNW) 04:05:17 437.305
ITAMSAT 1 24 Sep 04:10:57 04:15:05 23° 92° (E) 04:19:13 435.822/435.867
MOZHAYETS 4 24 Sep 04:22:27 04:26:49 41° 263° (W) 04:31:14
Gurwin Techsat 1B 24 Sep 04:30:42 04:35:28 34° 296° (WNW) 04:40:11 435.225
nSIGHT-1 24 Sep 04:33:23 04:35:05 14° 224° (SW) 04:36:48 .
KKS-1 24 Sep 04:42:01 04:45:56 31° 66° (ENE) 04:49:51 437.445
Oscar 19 24 Sep 04:45:50 04:49:26 19° 303° (WNW) 04:52:59 437.125/150
CUBESAT XI-V 24 Sep 04:48:30 04:53:13 87° 75° (ENE) 04:57:57 437.345
ITUPSAT 1 24 Sep 04:53:37 04:57:22 23° 267° (W) 05:01:08 437.325
AO-7 24 Sep 04:56:32 05:04:46 61° 104° (ESE) 05:12:56 .
BEESAT 3 24 Sep 05:04:28 05:08:26 63° 235° (SW) 05:12:19 437.485
STARS 24 Sep 05:06:27 05:09:59 25° 63° (ENE) 05:13:31 437.465
BEESAT 2 24 Sep 05:11:54 05:15:55 56° 47° (NE) 05:19:53 435.950
AO-85 24 Sep 05:32:05 05:36:27 88° 48° (NE) 05:41:11 145.980
BEESAT 24 Sep 05:34:09 05:34:30 10° 275° (W) 05:34:51 436.000
O/OREOS (USA 219) 24 Sep 05:39:28 05:41:11 12° 321° (NW) 05:42:55 437.305
RS-15 24 Sep 05:45:48 05:57:23 51° 113° (ESE) 06:08:58 29.354- 29.394
ITAMSAT 1 24 Sep 05:49:48 05:54:53 55° 291° (WNW) 05:59:58 435.822/435.867
DOVE 4 24 Sep 05:57:15 06:00:41 23° 94° (E) 06:04:11 437.250
KKS-1 24 Sep 06:18:31 06:22:27 31° 264° (W) 06:26:26 437.445
STRAND 1 24 Sep 06:23:40 06:27:02 18° 57° (ENE) 06:30:24 437.568
CUBESAT XI-V 24 Sep 06:29:15 06:31:14 12° 273° (W) 06:33:15 437.345
STARS 24 Sep 06:42:01 06:46:07 41° 261° (W) 06:50:16 437.465
AO-7 24 Sep 06:49:45 06:57:14 40° 305° (NW) 07:04:42 .
BEESAT 2 24 Sep 06:50:24 06:53:18 19° 246° (WSW) 06:56:10 435.950
XW-2D 24 Sep 06:55:42 06:58:58 26° 95° (E) 07:02:12 145.860 - 145.880
XW-2F 24 Sep 07:07:45 07:11:12 32° 96° (E) 07:14:37 145.980 - 146.000
XW-2B 24 Sep 07:07:54 07:11:25 34° 97° (E) 07:14:53 145.730 - 145.750
AO-85 24 Sep 07:13:57 07:16:22 14° 249° (WSW) 07:18:50 145.980
XW-2C 24 Sep 07:29:05 07:32:54 61° 101° (E) 07:36:38 145.795 - 145.815
NUDT-PHONESAT 24 Sep 07:30:12 07:33:49 44° 99° (E) 07:37:22 437.300
ITAMSAT 1 24 Sep 07:32:20 07:33:16 10° 311° (NW) 07:34:12 435.822/435.867
DOVE 4 24 Sep 07:34:36 07:38:31 38° 291° (WNW) 07:42:33 437.250
CUTE-I 24 Sep 07:39:07 07:44:23 57° 101° (E) 07:49:38 437.470
LilacSat-2 24 Sep 07:41:39 07:45:31 90° 333° (NNW) 07:49:20 437.200
SEEDS 24 Sep 07:41:52 07:43:31 12° 87° (E) 07:45:11 437.485
HO-68 24 Sep 07:54:47 08:01:13 34° 95° (E) 08:07:36 435.675
RS-15 24 Sep 07:57:26 08:09:43 65° 318° (NW) 08:21:55 29.354- 29.394
KAITUO 1B 24 Sep 07:59:02 08:02:48 81° 284° (WNW) 08:06:31 145.475/437.950
STRAND 1 24 Sep 08:00:30 08:05:36 80° 256° (WSW) 08:10:45 437.568
CUTE 1.7 + AOD 2 24 Sep 08:08:40 08:12:35 35° 96° (E) 08:16:27 437.475
FO-29 24 Sep 08:12:58 08:17:04 22° 59° (ENE) 08:20:59 435.910
XW-2D 24 Sep 08:29:50 08:33:07 28° 293° (WNW) 08:36:23 145.860 - 145.880
CUBEBUG 2 24 Sep 08:40:18 08:44:49 45° 98° (E) 08:49:22 437.445
UNISAT 6 24 Sep 08:41:51 08:43:16 11° 55° (NE) 08:44:42 437.425
XW-2F 24 Sep 08:42:09 08:45:11 23° 294° (WNW) 08:48:12 145.980 - 146.000
XW-2B 24 Sep 08:42:25 08:45:25 22° 295° (WNW) 08:48:24 145.730 - 145.750
AO-7 24 Sep 08:44:24 08:47:45 13° 330° (NNW) 08:51:07 .
UWE-3 24 Sep 08:46:47 08:51:00 32° 95° (E) 08:55:12 435.000/436.395/437.385
TIGRISAT 24 Sep 09:03:52 09:06:38 17° 59° (ENE) 09:09:26 435.000
XW-2C 24 Sep 09:04:34 09:06:36 14° 299° (WNW) 09:08:39 145.795 - 145.815
NUDT-PHONESAT 24 Sep 09:04:51 09:07:22 17° 297° (WNW) 09:09:51 437.300
XW-2A 24 Sep 09:13:16 09:16:44 80° 105° (ESE) 09:20:09 145.665 - 145.685
SEEDS 24 Sep 09:15:32 09:19:44 75° 285° (WNW) 09:23:53 437.485
LilacSat-2 24 Sep 09:18:31 09:19:08 10° 302° (WNW) 09:19:45 437.200
CUTE-I 24 Sep 09:19:49 09:24:05 25° 300° (WNW) 09:28:21 437.470
Oscar 11 24 Sep 09:29:35 09:33:25 29° 95° (E) 09:37:13 .
AO-73 24 Sep 09:30:35 09:34:59 43° 98° (E) 09:39:19 145.935
PRISM 24 Sep 09:32:10 09:34:55 18° 61° (ENE) 09:37:38 437.425
ZACube-1 24 Sep 09:33:34 09:38:04 52° 99° (E) 09:42:32 437.345
AAUSAT CUBESAT 2 24 Sep 09:37:13 09:41:22 87° 103° (ESE) 09:45:28 437.432
HO-68 24 Sep 09:42:16 09:49:16 58° 295° (WNW) 09:56:17 435.675
STRAND 1 24 Sep 09:43:57 09:45:38 11° 275° (W) 09:47:19 437.568
CUTE 1.7 + AOD 2 24 Sep 09:44:44 09:48:17 26° 295° (WNW) 09:51:48 437.475
FO-29 24 Sep 09:56:16 10:01:50 62° 258° (WSW) 10:07:02 435.910
RS-15 24 Sep 10:13:45 10:25:01 38° 349° (N) 10:36:02 29.354- 29.394
UNISAT 6 24 Sep 10:14:49 10:19:11 78° 73° (ENE) 10:23:40 437.425
CUBEBUG 2 24 Sep 10:17:22 10:21:12 26° 296° (WNW) 10:25:04 437.445
UWE-3 24 Sep 10:23:14 10:27:26 34° 293° (WNW) 10:31:38 435.000/436.395/437.385
Max Valier Satellite 24 Sep 10:27:28 10:30:20 20° 93° (E) 10:33:10 145.860
TIGRISAT 24 Sep 10:38:28 10:42:47 68° 257° (WSW) 10:47:16 435.000
O/OREOS (USA 219) 24 Sep 10:45:19 10:47:27 13° 40° (NE) 10:49:35 437.305
YUBILEINY 24 Sep 10:53:18 10:55:14 11° 67° (ENE) 10:57:09 435.215
POLYITAN 1 24 Sep 11:00:48 11:03:14 15° 59° (ENE) 11:05:41 437.675
DELFI C3 24 Sep 11:02:15 11:06:09 66° 101° (E) 11:10:03 145.870
EO-79 24 Sep 11:04:44 11:07:22 16° 60° (ENE) 11:10:00 145.935-145.965
Oscar 11 24 Sep 11:05:41 11:09:33 32° 293° (WNW) 11:13:24 .
PRISM 24 Sep 11:05:48 11:09:49 54° 259° (W) 11:13:49 437.425
AO-73 24 Sep 11:07:14 11:10:58 25° 296° (WNW) 11:14:41 145.935
M-CUBED/EXP-1 PRIME 24 Sep 11:09:32 11:10:12 10° 52° (NE) 11:10:52 437.505
ZACube-1 24 Sep 11:10:30 11:14:01 22° 298° (WNW) 11:17:31 437.345
AAUSAT CUBESAT 2 24 Sep 11:14:37 11:16:10 12° 302° (WNW) 11:17:43 437.432
AIST 2D 24 Sep 11:17:21 11:20:41 40° 71° (ENE) 11:24:03 435.315
QB50P2 24 Sep 11:17:39 11:20:59 23° 63° (ENE) 11:24:19 145.880/145.840
EO-88 24 Sep 11:26:40 11:30:22 72° 102° (ESE) 11:34:00 145.990 - 145.960
HO-68 24 Sep 11:31:41 11:35:35 16° 316° (NW) 11:39:29 435.675
ESTCUBE 1 24 Sep 11:42:27 11:44:33 13° 88° (E) 11:46:39 437.505/2401.250
NANOSAT C BR1 24 Sep 11:51:55 11:55:49 39° 69° (ENE) 11:59:46 145.865
UNISAT 6 24 Sep 11:54:32 11:56:30 13° 273° (W) 11:58:29 437.425
Max Valier Satellite 24 Sep 12:00:49 12:04:16 35° 291° (WNW) 12:07:40 145.860
DUCHIFAT 1 24 Sep 12:19:49 12:23:57 67° 73° (ENE) 12:28:09 145.980
LO-87 24 Sep 12:21:33 12:25:01 42° 99° (E) 12:28:28 145.935 - 145.965
O/OREOS (USA 219) 24 Sep 12:23:12 12:27:48 66° 61° (ENE) 12:32:22 437.305
AO-7 24 Sep 12:23:44 12:25:33 11° 26° (NNE) 12:27:23 .
RS-15 24 Sep 12:29:45 12:41:19 44° 23° (NNE) 12:52:21 29.354- 29.394
POLYITAN 1 24 Sep 12:34:18 12:38:29 70° 258° (WSW) 12:42:45 437.675
Gurwin Techsat 1B 24 Sep 12:38:13 12:41:28 17° 55° (NE) 12:44:43 435.225
DELFI C3 24 Sep 12:38:24 12:40:26 14° 300° (WNW) 12:42:27 145.870
EO-79 24 Sep 12:38:29 12:42:39 63° 258° (WSW) 12:46:53 145.935-145.965
M-CUBED/EXP-1 PRIME 24 Sep 12:39:51 12:44:03 73° 68° (ENE) 12:47:57 437.505
YUBILEINY 24 Sep 12:41:31 12:49:52 54° 90° (E) 12:58:13 435.215
Oscar 19 24 Sep 12:48:03 12:52:17 26° 61° (ENE) 12:56:32 437.125/150
AIST 2D 24 Sep 12:51:45 12:54:03 16° 269° (W) 12:56:22 435.315
QB50P2 24 Sep 12:52:33 12:56:33 41° 262° (W) 13:00:35 145.880/145.840
BUGSAT 1 24 Sep 12:53:29 12:57:18 42° 69° (ENE) 13:01:10 437.445
EO-88 24 Sep 13:02:11 13:03:28 12° 300° (WNW) 13:04:46 145.990 - 145.960
ESTCUBE 1 24 Sep 13:17:24 13:21:55 78° 287° (WNW) 13:26:23 437.505/2401.250
NO-84 24 Sep 13:27:43 13:30:53 25° 136° (SE) 13:33:52 435.350 FM
NANOSAT C BR1 24 Sep 13:28:20 13:31:40 23° 267° (W) 13:35:03 145.865
SPROUT 24 Sep 13:39:14 13:43:25 49° 100° (E) 13:47:35 437.525
50 SAT 24 Sep 13:41:55 13:42:35 10° 90° (E) 13:43:16 437.505
VELOX 1 24 Sep 13:44:07 13:48:16 40° 98° (E) 13:52:24 145.980
LO-87 24 Sep 13:55:46 13:58:08 17° 296° (WNW) 14:00:30 145.935 - 145.965
DUCHIFAT 1 24 Sep 13:57:57 14:00:05 14° 271° (W) 14:02:15 145.980
O/OREOS (USA 219) 24 Sep 14:03:48 14:06:41 17° 260° (W) 14:09:33 437.305
AO-7 24 Sep 14:08:43 14:15:44 32° 51° (NE) 14:22:46 .
Gurwin Techsat 1B 24 Sep 14:15:22 14:20:41 89° 74° (ENE) 14:26:03 435.225
M-CUBED/EXP-1 PRIME 24 Sep 14:16:55 14:18:49 13° 264° (W) 14:20:38 437.505
SO-50 24 Sep 14:24:46 14:28:40 30° 117° (ESE) 14:32:36 436.795
Oscar 19 24 Sep 14:26:14 14:31:19 53° 260° (W) 14:36:25 437.125/150
BUGSAT 1 24 Sep 14:29:54 14:32:52 20° 268° (W) 14:35:52 437.445
YUBILEINY 24 Sep 14:38:52 14:46:57 41° 292° (WNW) 14:55:05 435.215
UKube-1 24 Sep 14:43:09 14:46:58 30° 96° (E) 14:50:45 .
RS-15 24 Sep 14:43:14 14:55:25 90° 51° (NE) 15:06:54 29.354- 29.394
DX 1 24 Sep 14:51:02 14:55:19 54° 101° (E) 14:59:33 434.975-435.025
PCSat 24 Sep 14:53:50 14:58:34 32° 112° (ESE) 15:03:19 145.827
ESTCUBE 1 24 Sep 14:56:23 14:57:57 12° 305° (NW) 14:59:32 437.505/2401.250
NO-84 24 Sep 15:04:25 15:08:06 65° 332° (NNW) 15:11:29 435.350 FM
50 SAT 24 Sep 15:12:10 15:15:26 55° 288° (WNW) 15:18:40 437.505
SPROUT 24 Sep 15:15:50 15:19:00 20° 298° (WNW) 15:22:09 437.525
VELOX 1 24 Sep 15:20:56 15:24:32 25° 296° (WNW) 15:28:06 145.980
ITAMSAT 1 24 Sep 15:32:20 15:37:20 52° 68° (ENE) 15:42:21 435.822/435.867
BEESAT 24 Sep 15:48:01 15:51:35 20° 91° (E) 15:55:09 436.000
Gurwin Techsat 1B 24 Sep 15:58:33 16:01:23 14° 273° (W) 16:04:13 435.225
AO-7 24 Sep 15:59:30 16:07:50 78° 252° (WSW) 16:16:13 .
SO-50 24 Sep 16:04:41 16:09:00 44° 317° (NW) 16:13:20 436.795
MOZHAYETS 4 24 Sep 16:13:20 16:17:36 35° 96° (E) 16:21:49
UKube-1 24 Sep 16:19:09 16:22:59 32° 294° (WNW) 16:26:47 .
DX 1 24 Sep 16:28:02 16:31:08 19° 299° (WNW) 16:34:14 434.975-435.025
PCSat 24 Sep 16:36:29 16:41:46 51° 312° (NW) 16:47:05 145.827
CUBESAT XI-V 24 Sep 16:42:17 16:45:14 17° 89° (E) 16:48:10 437.345
NO-84 24 Sep 16:42:52 16:45:54 27° 352° (N) 16:48:44 435.350 FM
YUBILEINY 24 Sep 16:45:49 16:46:55 10° 320° (NW) 16:48:00 435.215
HO-68 24 Sep 16:46:55 16:48:08 10° 36° (NE) 16:49:22 435.675
ITUPSAT 1 24 Sep 16:48:40 16:53:30 70° 103° (ESE) 16:58:17 437.325
RS-15 24 Sep 16:56:49 17:06:19 30° 258° (WSW) 17:15:27 29.354- 29.394
DOVE 4 24 Sep 17:06:17 17:10:16 36° 69° (ENE) 17:14:07 437.250
ITAMSAT 1 24 Sep 17:12:55 17:17:05 24° 267° (W) 17:21:17 435.822/435.867
BEESAT 24 Sep 17:25:00 17:29:42 56° 290° (WNW) 17:34:23 436.000
CUTE-I 24 Sep 17:26:30 17:30:34 23° 59° (ENE) 17:34:39 437.470
XW-2D 24 Sep 17:40:28 17:43:34 23° 66° (ENE) 17:46:40 145.860 - 145.880
SO-50 24 Sep 17:48:03 17:50:35 15° 340° (NNW) 17:53:07 436.795
MOZHAYETS 4 24 Sep 17:50:36 17:54:41 31° 295° (WNW) 17:58:45
XW-2F 24 Sep 17:51:59 17:55:17 28° 67° (ENE) 17:58:35 145.980 - 146.000
XW-2B 24 Sep 17:52:31 17:55:53 29° 68° (ENE) 17:59:16 145.730 - 145.750
AO-7 24 Sep 17:56:38 18:01:58 18° 273° (W) 18:07:20 .
KKS-1 24 Sep 18:04:57 18:09:03 35° 97° (E) 18:13:08 437.445
NUDT-PHONESAT 24 Sep 18:12:35 18:16:02 35° 69° (ENE) 18:19:29 437.300
XW-2C 24 Sep 18:13:29 18:17:13 50° 72° (ENE) 18:20:57 145.795 - 145.815
CUBESAT XI-V 24 Sep 18:18:27 18:23:03 64° 288° (WNW) 18:27:36 437.345
NO-84 24 Sep 18:20:56 18:23:55 31° 14° (NNE) 18:26:42 435.350 FM
PCSat 24 Sep 18:23:05 18:26:28 16° 335° (NNW) 18:29:52 145.827
LilacSat-2 24 Sep 18:26:33 18:30:25 76° 74° (ENE) 18:34:19 437.200
STARS 24 Sep 18:27:22 18:31:05 26° 95° (E) 18:34:47 437.465
HO-68 24 Sep 18:27:29 18:33:56 38° 59° (ENE) 18:40:25 435.675
ITUPSAT 1 24 Sep 18:27:31 18:30:48 19° 302° (WNW) 18:34:06 437.325
SEEDS 24 Sep 18:36:50 18:39:18 15° 60° (ENE) 18:41:46 437.485
KAITUO 1B 24 Sep 18:41:56 18:45:44 79° 74° (ENE) 18:49:33 145.475/437.950
DOVE 4 24 Sep 18:44:28 18:48:04 25° 266° (W) 18:51:34 437.250
AAUSAT CUBESAT 2 24 Sep 18:58:10 18:59:42 12° 58° (ENE) 19:01:16 437.432
CUTE 1.7 + AOD 2 24 Sep 19:04:32 19:08:32 40° 69° (ENE) 19:12:33 437.475
CUTE-I 24 Sep 19:04:56 19:10:11 63° 258° (WSW) 19:15:29 437.470
XW-2D 24 Sep 19:14:06 19:17:36 33° 264° (W) 19:21:08 145.860 - 145.880
XW-2F 24 Sep 19:26:04 19:29:22 27° 265° (W) 19:32:41 145.980 - 146.000
XW-2B 24 Sep 19:26:49 19:30:04 26° 266° (W) 19:33:19 145.730 - 145.750
SO-50 24 Sep 19:31:56 19:33:00 11° 5° (N) 19:34:03 436.795
KKS-1 24 Sep 19:41:41 19:45:30 29° 295° (WNW) 19:49:18 437.445
CUBEBUG 2 24 Sep 19:41:51 19:46:02 55° 71° (ENE) 19:50:23 437.445
NUDT-PHONESAT 24 Sep 19:47:09 19:50:00 20° 267° (W) 19:52:53 437.300
UWE-3 24 Sep 19:47:11 19:51:13 38° 68° (ENE) 19:55:23 435.000/436.395/437.385
XW-2A 24 Sep 19:47:36 19:50:52 46° 72° (ENE) 19:54:12 145.665 - 145.685
Tancredo 1 24 Sep 19:48:15 19:50:09 18° 142° (SE) 19:52:05 437.200
XW-2C 24 Sep 19:49:21 19:51:40 15° 270° (W) 19:54:02 145.795 - 145.815
NO-84 24 Sep 19:58:23 20:01:29 66° 216° (SW) 20:04:23 435.350 FM
CUBESAT XI-V 24 Sep 19:59:04 19:59:30 10° 307° (NW) 19:59:57 437.345
STARS 24 Sep 20:03:27 20:07:30 37° 293° (WNW) 20:11:34 437.465
LilacSat-2 24 Sep 20:04:19 20:05:12 11° 273° (W) 20:06:05 437.200
STRAND 1 24 Sep 20:07:28 20:11:48 27° 94° (E) 20:16:06 437.568
SEEDS 24 Sep 20:10:16 20:14:29 69° 258° (WSW) 20:18:43 437.485
PCSat 24 Sep 20:11:08 20:12:18 11° 2° (N) 20:13:28 145.827
HO-68 24 Sep 20:14:32 20:21:28 53° 259° (W) 20:28:29 435.675
Oscar 11 24 Sep 20:27:39 20:31:38 36° 68° (ENE) 20:35:39 .
AO-73 24 Sep 20:29:15 20:33:29 51° 71° (ENE) 20:37:50 145.935
AAUSAT CUBESAT 2 24 Sep 20:30:21 20:34:31 89° 269° (W) 20:38:42 437.432
ZACube-1 24 Sep 20:32:34 20:36:51 61° 73° (ENE) 20:41:17 437.345
BEESAT 3 24 Sep 20:33:57 20:37:55 62° 124° (SE) 20:41:56 437.485
ISS 24 Sep 20:37:03 20:38:09 11° 134° (SE) 20:39:17 437.550
CUTE 1.7 + AOD 2 24 Sep 20:41:05 20:44:31 23° 267° (W) 20:47:58 437.475
BEESAT 2 24 Sep 20:43:58 20:47:23 27° 117° (ESE) 20:50:51 435.950
FO-29 24 Sep 21:02:01 21:04:17 12° 87° (E) 21:06:37 435.910
Max Valier Satellite 24 Sep 21:10:12 21:12:41 17° 63° (ENE) 21:15:11 145.860
SO-50 24 Sep 21:11:47 21:15:12 20° 29° (NNE) 21:18:38 436.795
nSIGHT-1 24 Sep 21:12:57 21:15:35 23° 142° (SE) 21:18:15 .
CUBEBUG 2 24 Sep 21:20:10 21:23:03 17° 271° (W) 21:25:59 437.445
Tancredo 1 24 Sep 21:21:40 21:24:21 82° 339° (NNW) 21:27:03 437.200
XW-2A 24 Sep 21:22:08 21:23:52 13° 270° (W) 21:25:36 145.665 - 145.685
UWE-3 24 Sep 21:24:12 21:27:47 25° 267° (W) 21:31:30 435.000/436.395/437.385
AO-85 24 Sep 21:30:14 21:34:07 75° 126° (SE) 21:38:06 145.980
STRAND 1 24 Sep 21:46:15 21:51:11 48° 292° (WNW) 21:56:06 437.568
DELFI C3 24 Sep 21:50:40 21:54:34 61° 73° (ENE) 21:58:27 145.870
PCSat 24 Sep 21:54:20 21:58:02 18° 28° (NNE) 22:01:45 145.827
UNISAT 6 24 Sep 22:03:53 22:06:17 14° 88° (E) 22:08:41 437.425
Oscar 11 24 Sep 22:04:11 22:07:51 26° 266° (W) 22:11:34 .
AO-73 24 Sep 22:06:52 22:10:02 19° 270° (W) 22:13:15 145.935
EO-88 24 Sep 22:07:29 22:11:03 53° 73° (ENE) 22:14:40 145.990 - 145.960
ZACube-1 24 Sep 22:10:49 22:13:34 16° 271° (W) 22:16:23 437.345
ISS 24 Sep 22:10:50 22:14:03 58° 152° (SSE) 22:17:19 437.550
BEESAT 3 24 Sep 22:12:34 22:15:50 23° 324° (NW) 22:19:07 437.485
BEESAT 2 24 Sep 22:21:09 22:25:00 41° 316° (NW) 22:28:53 435.950
TIGRISAT 24 Sep 22:26:26 22:29:59 21° 91° (E) 22:33:31 435.000
Max Valier Satellite 24 Sep 22:42:38 22:46:12 44° 261° (W) 22:49:49 145.860
PRISM 24 Sep 22:44:12 22:46:35 15° 91° (E) 22:48:58 437.425
FO-29 24 Sep 22:44:42 22:50:09 79° 104° (ESE) 22:56:11 435.910
ESTCUBE 1 24 Sep 22:45:00 22:48:19 20° 61° (ENE) 22:51:39 437.505/2401.250
YUBILEINY 24 Sep 22:46:40 22:54:22 33° 64° (ENE) 23:02:04 435.215
nSIGHT-1 24 Sep 22:48:25 22:51:39 80° 339° (NNW) 22:54:55 .
SO-50 24 Sep 22:51:44 22:56:21 82° 52° (NE) 23:00:59 436.795
Tancredo 1 24 Sep 22:56:27 22:59:01 39° 359° (N) 23:01:36 437.200
LO-87 24 Sep 23:01:05 23:04:12 30° 69° (ENE) 23:07:21 145.935 - 145.965
AO-85 24 Sep 23:12:03 23:14:59 20° 328° (NNW) 23:18:00 145.980
DELFI C3 24 Sep 23:27:47 23:29:43 13° 271° (W) 23:31:39 145.870
PCSat 24 Sep 23:37:10 23:42:35 61° 51° (NE) 23:47:56 145.827
UNISAT 6 24 Sep 23:38:52 23:43:33 80° 285° (WNW) 23:48:15 437.425
EO-88 24 Sep 23:43:10 23:45:02 13° 270° (W) 23:46:55 145.990 - 145.960
ISS 24 Sep 23:47:23 23:50:36 51° 351° (N) 23:53:50 437.550
BEESAT 2 25 Sep 00:02:07 00:03:47 12° 338° (NNW) 00:05:29 435.950
TIGRISAT 25 Sep 00:02:23 00:06:56 53° 289° (WNW) 00:11:30 435.000
AIST 2D 25 Sep 00:11:36 00:14:42 28° 95° (E) 00:17:47 435.315
POLYITAN 1 25 Sep 00:16:21 00:18:51 15° 89° (E) 00:21:21 437.675
DX 1 25 Sep 00:17:35 00:18:43 11° 55° (NE) 00:19:52 434.975-435.025
PRISM 25 Sep 00:18:14 00:22:13 57° 289° (WNW) 00:26:11 437.425
EO-79 25 Sep 00:20:09 00:22:53 16° 90° (E) 00:25:36 145.935-145.965
ESTCUBE 1 25 Sep 00:20:19 00:24:45 55° 260° (W) 00:29:14 437.505/2401.250
nSIGHT-1 25 Sep 00:25:04 00:28:13 46° 360° (N) 00:31:23 .
Tancredo 1 25 Sep 00:31:02 00:33:43 71° 18° (NNE) 00:36:24 437.200
FO-29 25 Sep 00:31:03 00:34:47 19° 302° (WNW) 00:38:42 435.910
SO-50 25 Sep 00:33:29 00:36:14 16° 249° (WSW) 00:38:58 436.795
QB50P2 25 Sep 00:33:35 00:37:06 24° 94° (E) 00:40:35 145.880/145.840
LO-87 25 Sep 00:34:57 00:37:40 21° 266° (W) 00:40:26 145.935 - 145.965
SPROUT 25 Sep 00:35:45 00:39:55 60° 73° (ENE) 00:44:07 437.525
YUBILEINY 25 Sep 00:43:15 00:51:52 67° 267° (W) 01:00:30 435.215
VELOX 1 25 Sep 00:44:35 00:48:52 57° 72° (ENE) 00:53:12 145.980
NANOSAT C BR1 25 Sep 01:07:32 01:11:37 42° 98° (E) 01:15:40 145.865
